<?xml version="1.0" encoding="UTF-8" standalone="no" ?>
<gpx xmlns="http://www.topografix.com/GPX/1/1" xmlns:xsi="http://www.w3.org/2001/XMLSchema-instance" xsi:schemaLocation="http://www.topografix.com/GPX/1/1 http://www.topografix.com/GPX/1/1/gpx.xsd" version="1.1" creator="VisuGPX - https://www.visugpx.com">
  <metadata>
    <name>096.Les Collines Du Château Virant</name>
    <desc><![CDATA[Lien Facebook images et vidéos:
https://www.facebook.com/share/v/18w6iKrRYN/]]></desc>
  </metadata>
  <trk>
    <name><![CDATA[Les collines du château Viran]]></name>
    <extensions>
      <line xmlns="http://www.topografix.com/GPX/gpx_style/0/2">
        <color>0000FF</color>
        <width>4</width>
      </line>
    </extensions>
    <trkseg>
      <trkpt lat="43.55693" lon="5.14129">
        <ele>126.8</ele>
        <time>2025-10-13T21:38:25Z</time>
      </trkpt>
      <trkpt lat="43.55697" lon="5.14124">
        <ele>126.8</ele>
        <time>2025-10-13T21:38:25Z</time>
      </trkpt>
      <trkpt lat="43.55695" lon="5.14122">
        <ele>126.8</ele>
        <time>2025-10-13T21:38:25Z</time>
      </trkpt>
      <trkpt lat="43.5569" lon="5.14108">
        <ele>128</ele>
        <time>2025-10-13T21:38:25Z</time>
      </trkpt>
      <trkpt lat="43.55688" lon="5.14104">
        <ele>128.4</ele>
        <time>2025-10-13T21:38:25Z</time>
      </trkpt>
      <trkpt lat="43.55687" lon="5.14095">
        <ele>128.9</ele>
        <time>2025-10-13T21:38:25Z</time>
      </trkpt>
      <trkpt lat="43.55686" lon="5.14072">
        <ele>130</ele>
        <time>2025-10-13T21:38:25Z</time>
      </trkpt>
      <trkpt lat="43.55686" lon="5.14055">
        <ele>130.9</ele>
        <time>2025-10-13T21:38:25Z</time>
      </trkpt>
      <trkpt lat="43.55686" lon="5.14038">
        <ele>131.3</ele>
        <time>2025-10-13T21:38:25Z</time>
      </trkpt>
      <trkpt lat="43.55687" lon="5.13997">
        <ele>131</ele>
        <time>2025-10-13T21:38:25Z</time>
      </trkpt>
      <trkpt lat="43.55685" lon="5.13955">
        <ele>131.7</ele>
        <time>2025-10-13T21:38:25Z</time>
      </trkpt>
      <trkpt lat="43.55683" lon="5.13934">
        <ele>132.2</ele>
        <time>2025-10-13T21:38:25Z</time>
      </trkpt>
      <trkpt lat="43.55683" lon="5.13924">
        <ele>132.7</ele>
        <time>2025-10-13T21:38:25Z</time>
      </trkpt>
      <trkpt lat="43.55683" lon="5.13919">
        <ele>132.9</ele>
        <time>2025-10-13T21:38:25Z</time>
      </trkpt>
      <trkpt lat="43.55685" lon="5.13914">
        <ele>133.1</ele>
        <time>2025-10-13T21:38:25Z</time>
      </trkpt>
      <trkpt lat="43.55697" lon="5.1388">
        <ele>134</ele>
        <time>2025-10-13T21:38:25Z</time>
      </trkpt>
      <trkpt lat="43.55703" lon="5.13862">
        <ele>134.7</ele>
        <time>2025-10-13T21:38:25Z</time>
      </trkpt>
      <trkpt lat="43.55712" lon="5.13823">
        <ele>136.8</ele>
        <time>2025-10-13T21:38:25Z</time>
      </trkpt>
      <trkpt lat="43.55713" lon="5.13816">
        <ele>137.3</ele>
        <time>2025-10-13T21:38:25Z</time>
      </trkpt>
      <trkpt lat="43.55713" lon="5.13808">
        <ele>137.9</ele>
        <time>2025-10-13T21:38:25Z</time>
      </trkpt>
      <trkpt lat="43.55712" lon="5.13786">
        <ele>138.4</ele>
        <time>2025-10-13T21:38:25Z</time>
      </trkpt>
      <trkpt lat="43.55713" lon="5.13767">
        <ele>138.4</ele>
        <time>2025-10-13T21:38:25Z</time>
      </trkpt>
      <trkpt lat="43.55717" lon="5.13748">
        <ele>138.6</ele>
        <time>2025-10-13T21:38:25Z</time>
      </trkpt>
      <trkpt lat="43.55724" lon="5.13733">
        <ele>139.5</ele>
        <time>2025-10-13T21:38:25Z</time>
      </trkpt>
      <trkpt lat="43.55737" lon="5.13716">
        <ele>140</ele>
        <time>2025-10-13T21:38:25Z</time>
      </trkpt>
      <trkpt lat="43.55744" lon="5.13708">
        <ele>140.5</ele>
        <time>2025-10-13T21:38:25Z</time>
      </trkpt>
      <trkpt lat="43.55751" lon="5.13699">
        <ele>141.1</ele>
        <time>2025-10-13T21:38:25Z</time>
      </trkpt>
      <trkpt lat="43.55754" lon="5.13693">
        <ele>141.4</ele>
        <time>2025-10-13T21:38:25Z</time>
      </trkpt>
      <trkpt lat="43.55763" lon="5.13663">
        <ele>143.6</ele>
        <time>2025-10-13T21:38:25Z</time>
      </trkpt>
      <trkpt lat="43.55765" lon="5.13653">
        <ele>144.5</ele>
        <time>2025-10-13T21:38:25Z</time>
      </trkpt>
      <trkpt lat="43.55766" lon="5.13641">
        <ele>145.2</ele>
        <time>2025-10-13T21:38:25Z</time>
      </trkpt>
      <trkpt lat="43.55766" lon="5.13628">
        <ele>145.9</ele>
        <time>2025-10-13T21:38:25Z</time>
      </trkpt>
      <trkpt lat="43.55765" lon="5.13615">
        <ele>146.1</ele>
        <time>2025-10-13T21:38:25Z</time>
      </trkpt>
      <trkpt lat="43.55765" lon="5.13608">
        <ele>146.2</ele>
        <time>2025-10-13T21:38:25Z</time>
      </trkpt>
      <trkpt lat="43.55765" lon="5.13592">
        <ele>147</ele>
        <time>2025-10-13T21:38:25Z</time>
      </trkpt>
      <trkpt lat="43.55766" lon="5.13582">
        <ele>147.7</ele>
        <time>2025-10-13T21:38:25Z</time>
      </trkpt>
      <trkpt lat="43.55766" lon="5.13571">
        <ele>148.1</ele>
        <time>2025-10-13T21:38:25Z</time>
      </trkpt>
      <trkpt lat="43.55766" lon="5.1356">
        <ele>148.3</ele>
        <time>2025-10-13T21:38:25Z</time>
      </trkpt>
      <trkpt lat="43.55765" lon="5.13555">
        <ele>148.6</ele>
        <time>2025-10-13T21:38:25Z</time>
      </trkpt>
      <trkpt lat="43.55764" lon="5.13551">
        <ele>148.6</ele>
        <time>2025-10-13T21:38:25Z</time>
      </trkpt>
      <trkpt lat="43.5576" lon="5.13546">
        <ele>149</ele>
        <time>2025-10-13T21:38:25Z</time>
      </trkpt>
      <trkpt lat="43.55756" lon="5.13544">
        <ele>148.8</ele>
        <time>2025-10-13T21:38:25Z</time>
      </trkpt>
      <trkpt lat="43.55745" lon="5.13541">
        <ele>149</ele>
        <time>2025-10-13T21:38:25Z</time>
      </trkpt>
      <trkpt lat="43.55735" lon="5.1354">
        <ele>149.1</ele>
        <time>2025-10-13T21:38:25Z</time>
      </trkpt>
      <trkpt lat="43.55729" lon="5.1354">
        <ele>148.8</ele>
        <time>2025-10-13T21:38:25Z</time>
      </trkpt>
      <trkpt lat="43.55723" lon="5.13538">
        <ele>148.9</ele>
        <time>2025-10-13T21:38:25Z</time>
      </trkpt>
      <trkpt lat="43.55713" lon="5.13531">
        <ele>149.5</ele>
        <time>2025-10-13T21:38:25Z</time>
      </trkpt>
      <trkpt lat="43.55701" lon="5.13514">
        <ele>149</ele>
        <time>2025-10-13T21:38:25Z</time>
      </trkpt>
      <trkpt lat="43.55692" lon="5.13501">
        <ele>149.1</ele>
        <time>2025-10-13T21:38:25Z</time>
      </trkpt>
      <trkpt lat="43.55689" lon="5.13494">
        <ele>149.1</ele>
        <time>2025-10-13T21:38:25Z</time>
      </trkpt>
      <trkpt lat="43.55685" lon="5.13486">
        <ele>148.9</ele>
        <time>2025-10-13T21:38:25Z</time>
      </trkpt>
      <trkpt lat="43.55683" lon="5.13479">
        <ele>148.8</ele>
        <time>2025-10-13T21:38:25Z</time>
      </trkpt>
      <trkpt lat="43.55679" lon="5.13473">
        <ele>148.8</ele>
        <time>2025-10-13T21:38:25Z</time>
      </trkpt>
      <trkpt lat="43.55675" lon="5.13467">
        <ele>148.9</ele>
        <time>2025-10-13T21:38:25Z</time>
      </trkpt>
      <trkpt lat="43.55674" lon="5.13464">
        <ele>148.9</ele>
        <time>2025-10-13T21:38:25Z</time>
      </trkpt>
      <trkpt lat="43.55659" lon="5.13442">
        <ele>148.9</ele>
        <time>2025-10-13T21:38:25Z</time>
      </trkpt>
      <trkpt lat="43.5565" lon="5.13432">
        <ele>149.1</ele>
        <time>2025-10-13T21:38:25Z</time>
      </trkpt>
      <trkpt lat="43.55643" lon="5.13427">
        <ele>148.9</ele>
        <time>2025-10-13T21:38:25Z</time>
      </trkpt>
      <trkpt lat="43.5563" lon="5.13419">
        <ele>148.9</ele>
        <time>2025-10-13T21:38:25Z</time>
      </trkpt>
      <trkpt lat="43.55626" lon="5.13415">
        <ele>148.9</ele>
        <time>2025-10-13T21:38:25Z</time>
      </trkpt>
      <trkpt lat="43.55617" lon="5.1341">
        <ele>148.9</ele>
        <time>2025-10-13T21:38:25Z</time>
      </trkpt>
      <trkpt lat="43.55611" lon="5.13405">
        <ele>149</ele>
        <time>2025-10-13T21:38:25Z</time>
      </trkpt>
      <trkpt lat="43.55599" lon="5.13402">
        <ele>149.4</ele>
        <time>2025-10-13T21:38:25Z</time>
      </trkpt>
      <trkpt lat="43.55593" lon="5.13402">
        <ele>150</ele>
        <time>2025-10-13T21:38:25Z</time>
      </trkpt>
      <trkpt lat="43.5559" lon="5.13404">
        <ele>150.7</ele>
        <time>2025-10-13T21:38:25Z</time>
      </trkpt>
      <trkpt lat="43.55565" lon="5.13427">
        <ele>150.7</ele>
        <time>2025-10-13T21:38:25Z</time>
      </trkpt>
      <trkpt lat="43.55547" lon="5.13443">
        <ele>152.8</ele>
        <time>2025-10-13T21:38:25Z</time>
      </trkpt>
      <trkpt lat="43.55531" lon="5.13455">
        <ele>154.6</ele>
        <time>2025-10-13T21:38:25Z</time>
      </trkpt>
      <trkpt lat="43.55491" lon="5.13481">
        <ele>157</ele>
        <time>2025-10-13T21:38:25Z</time>
      </trkpt>
      <trkpt lat="43.55485" lon="5.13486">
        <ele>164.8</ele>
        <time>2025-10-13T21:38:25Z</time>
      </trkpt>
      <trkpt lat="43.55477" lon="5.13489">
        <ele>165.7</ele>
        <time>2025-10-13T21:38:25Z</time>
      </trkpt>
      <trkpt lat="43.5547" lon="5.13489">
        <ele>166.5</ele>
        <time>2025-10-13T21:38:25Z</time>
      </trkpt>
      <trkpt lat="43.55466" lon="5.1349">
        <ele>166.7</ele>
        <time>2025-10-13T21:38:25Z</time>
      </trkpt>
      <trkpt lat="43.55461" lon="5.13493">
        <ele>166.7</ele>
        <time>2025-10-13T21:38:25Z</time>
      </trkpt>
      <trkpt lat="43.5546" lon="5.13495">
        <ele>166.8</ele>
        <time>2025-10-13T21:38:25Z</time>
      </trkpt>
      <trkpt lat="43.55446" lon="5.13516">
        <ele>166.4</ele>
        <time>2025-10-13T21:38:25Z</time>
      </trkpt>
      <trkpt lat="43.55441" lon="5.13526">
        <ele>166.4</ele>
        <time>2025-10-13T21:38:25Z</time>
      </trkpt>
      <trkpt lat="43.55437" lon="5.13534">
        <ele>166.1</ele>
        <time>2025-10-13T21:38:25Z</time>
      </trkpt>
      <trkpt lat="43.55435" lon="5.13542">
        <ele>166.2</ele>
        <time>2025-10-13T21:38:25Z</time>
      </trkpt>
      <trkpt lat="43.55433" lon="5.13547">
        <ele>166.3</ele>
        <time>2025-10-13T21:38:25Z</time>
      </trkpt>
      <trkpt lat="43.55419" lon="5.13537">
        <ele>166.4</ele>
        <time>2025-10-13T21:38:25Z</time>
      </trkpt>
      <trkpt lat="43.55406" lon="5.13525">
        <ele>166.6</ele>
        <time>2025-10-13T21:38:25Z</time>
      </trkpt>
      <trkpt lat="43.55396" lon="5.13504">
        <ele>167.1</ele>
        <time>2025-10-13T21:38:25Z</time>
      </trkpt>
      <trkpt lat="43.5538" lon="5.13516">
        <ele>168.4</ele>
        <time>2025-10-13T21:38:25Z</time>
      </trkpt>
      <trkpt lat="43.55369" lon="5.13522">
        <ele>168.5</ele>
        <time>2025-10-13T21:38:25Z</time>
      </trkpt>
      <trkpt lat="43.55359" lon="5.13523">
        <ele>171.7</ele>
        <time>2025-10-13T21:38:25Z</time>
      </trkpt>
      <trkpt lat="43.55349" lon="5.13515">
        <ele>175.3</ele>
        <time>2025-10-13T21:38:25Z</time>
      </trkpt>
      <trkpt lat="43.55337" lon="5.13529">
        <ele>174.8</ele>
        <time>2025-10-13T21:38:25Z</time>
      </trkpt>
      <trkpt lat="43.55348" lon="5.13517">
        <ele>168.5</ele>
        <time>2025-10-13T21:38:25Z</time>
      </trkpt>
      <trkpt lat="43.55357" lon="5.13526">
        <ele>166.3</ele>
        <time>2025-10-13T21:38:25Z</time>
      </trkpt>
      <trkpt lat="43.55382" lon="5.13516">
        <ele>169</ele>
        <time>2025-10-13T21:38:25Z</time>
      </trkpt>
      <trkpt lat="43.55391" lon="5.13505">
        <ele>173.5</ele>
        <time>2025-10-13T21:38:25Z</time>
      </trkpt>
      <trkpt lat="43.55401" lon="5.13517">
        <ele>171.7</ele>
        <time>2025-10-13T21:38:25Z</time>
      </trkpt>
      <trkpt lat="43.55411" lon="5.1353">
        <ele>168.9</ele>
        <time>2025-10-13T21:38:25Z</time>
      </trkpt>
      <trkpt lat="43.55423" lon="5.13537">
        <ele>169.2</ele>
        <time>2025-10-13T21:38:25Z</time>
      </trkpt>
      <trkpt lat="43.55429" lon="5.13543">
        <ele>167.7</ele>
        <time>2025-10-13T21:38:25Z</time>
      </trkpt>
      <trkpt lat="43.55433" lon="5.13548">
        <ele>167</ele>
        <time>2025-10-13T21:38:25Z</time>
      </trkpt>
      <trkpt lat="43.55424" lon="5.13591">
        <ele>166.6</ele>
        <time>2025-10-13T21:38:25Z</time>
      </trkpt>
      <trkpt lat="43.55424" lon="5.13608">
        <ele>166.6</ele>
        <time>2025-10-13T21:38:25Z</time>
      </trkpt>
      <trkpt lat="43.55425" lon="5.13618">
        <ele>168.8</ele>
        <time>2025-10-13T21:38:25Z</time>
      </trkpt>
      <trkpt lat="43.5542" lon="5.13642">
        <ele>169</ele>
        <time>2025-10-13T21:38:25Z</time>
      </trkpt>
      <trkpt lat="43.55417" lon="5.13654">
        <ele>169.2</ele>
        <time>2025-10-13T21:38:25Z</time>
      </trkpt>
      <trkpt lat="43.55414" lon="5.13673">
        <ele>172.6</ele>
        <time>2025-10-13T21:38:25Z</time>
      </trkpt>
      <trkpt lat="43.55409" lon="5.13694">
        <ele>171.8</ele>
        <time>2025-10-13T21:38:25Z</time>
      </trkpt>
      <trkpt lat="43.55415" lon="5.13665">
        <ele>168.8</ele>
        <time>2025-10-13T21:38:25Z</time>
      </trkpt>
      <trkpt lat="43.5542" lon="5.13635">
        <ele>166</ele>
        <time>2025-10-13T21:38:25Z</time>
      </trkpt>
      <trkpt lat="43.55427" lon="5.13616">
        <ele>170.8</ele>
        <time>2025-10-13T21:38:25Z</time>
      </trkpt>
      <trkpt lat="43.55445" lon="5.13615">
        <ele>171.5</ele>
        <time>2025-10-13T21:38:25Z</time>
      </trkpt>
      <trkpt lat="43.55458" lon="5.13611">
        <ele>168.9</ele>
        <time>2025-10-13T21:38:25Z</time>
      </trkpt>
      <trkpt lat="43.55471" lon="5.1359">
        <ele>167.8</ele>
        <time>2025-10-13T21:38:25Z</time>
      </trkpt>
      <trkpt lat="43.55491" lon="5.13618">
        <ele>167.5</ele>
        <time>2025-10-13T21:38:25Z</time>
      </trkpt>
      <trkpt lat="43.55497" lon="5.13642">
        <ele>167.3</ele>
        <time>2025-10-13T21:38:25Z</time>
      </trkpt>
      <trkpt lat="43.55497" lon="5.13649">
        <ele>166.5</ele>
        <time>2025-10-13T21:38:25Z</time>
      </trkpt>
      <trkpt lat="43.55497" lon="5.13655">
        <ele>165</ele>
        <time>2025-10-13T21:38:25Z</time>
      </trkpt>
      <trkpt lat="43.55495" lon="5.1366">
        <ele>159.7</ele>
        <time>2025-10-13T21:38:25Z</time>
      </trkpt>
      <trkpt lat="43.55487" lon="5.13673">
        <ele>159</ele>
        <time>2025-10-13T21:38:25Z</time>
      </trkpt>
      <trkpt lat="43.55478" lon="5.13684">
        <ele>156.9</ele>
        <time>2025-10-13T21:38:25Z</time>
      </trkpt>
      <trkpt lat="43.55427" lon="5.13751">
        <ele>156.7</ele>
        <time>2025-10-13T21:38:25Z</time>
      </trkpt>
      <trkpt lat="43.55408" lon="5.13779">
        <ele>153.5</ele>
        <time>2025-10-13T21:38:25Z</time>
      </trkpt>
      <trkpt lat="43.55401" lon="5.13783">
        <ele>150.3</ele>
        <time>2025-10-13T21:38:25Z</time>
      </trkpt>
      <trkpt lat="43.55397" lon="5.13783">
        <ele>138.3</ele>
        <time>2025-10-13T21:38:25Z</time>
      </trkpt>
      <trkpt lat="43.55393" lon="5.13781">
        <ele>134.1</ele>
        <time>2025-10-13T21:38:25Z</time>
      </trkpt>
      <trkpt lat="43.55389" lon="5.13777">
        <ele>133.1</ele>
        <time>2025-10-13T21:38:25Z</time>
      </trkpt>
      <trkpt lat="43.55386" lon="5.13773">
        <ele>133.1</ele>
        <time>2025-10-13T21:38:25Z</time>
      </trkpt>
      <trkpt lat="43.55384" lon="5.1377">
        <ele>132.9</ele>
        <time>2025-10-13T21:38:25Z</time>
      </trkpt>
      <trkpt lat="43.55385" lon="5.13759">
        <ele>132.6</ele>
        <time>2025-10-13T21:38:25Z</time>
      </trkpt>
      <trkpt lat="43.55388" lon="5.13746">
        <ele>132.1</ele>
        <time>2025-10-13T21:38:25Z</time>
      </trkpt>
      <trkpt lat="43.55389" lon="5.13736">
        <ele>132.1</ele>
        <time>2025-10-13T21:38:25Z</time>
      </trkpt>
      <trkpt lat="43.55389" lon="5.1373">
        <ele>133.5</ele>
        <time>2025-10-13T21:38:25Z</time>
      </trkpt>
      <trkpt lat="43.55385" lon="5.13716">
        <ele>133.6</ele>
        <time>2025-10-13T21:38:25Z</time>
      </trkpt>
      <trkpt lat="43.55377" lon="5.13697">
        <ele>134.4</ele>
        <time>2025-10-13T21:38:25Z</time>
      </trkpt>
      <trkpt lat="43.55369" lon="5.13682">
        <ele>134.4</ele>
        <time>2025-10-13T21:38:25Z</time>
      </trkpt>
      <trkpt lat="43.5535" lon="5.13655">
        <ele>132.8</ele>
        <time>2025-10-13T21:38:25Z</time>
      </trkpt>
      <trkpt lat="43.55334" lon="5.1364">
        <ele>130.5</ele>
        <time>2025-10-13T21:38:25Z</time>
      </trkpt>
      <trkpt lat="43.55325" lon="5.13634">
        <ele>127.6</ele>
        <time>2025-10-13T21:38:25Z</time>
      </trkpt>
      <trkpt lat="43.55314" lon="5.13621">
        <ele>125</ele>
        <time>2025-10-13T21:38:25Z</time>
      </trkpt>
      <trkpt lat="43.55293" lon="5.13589">
        <ele>123.1</ele>
        <time>2025-10-13T21:38:25Z</time>
      </trkpt>
      <trkpt lat="43.55278" lon="5.1357">
        <ele>119.7</ele>
        <time>2025-10-13T21:38:25Z</time>
      </trkpt>
      <trkpt lat="43.55271" lon="5.13561">
        <ele>117.2</ele>
        <time>2025-10-13T21:38:25Z</time>
      </trkpt>
      <trkpt lat="43.55265" lon="5.13556">
        <ele>114.5</ele>
        <time>2025-10-13T21:38:25Z</time>
      </trkpt>
      <trkpt lat="43.55242" lon="5.13542">
        <ele>112.1</ele>
        <time>2025-10-13T21:38:25Z</time>
      </trkpt>
      <trkpt lat="43.55237" lon="5.13539">
        <ele>110.7</ele>
        <time>2025-10-13T21:38:25Z</time>
      </trkpt>
      <trkpt lat="43.55233" lon="5.13537">
        <ele>109.5</ele>
        <time>2025-10-13T21:38:25Z</time>
      </trkpt>
      <trkpt lat="43.55227" lon="5.13537">
        <ele>109</ele>
        <time>2025-10-13T21:38:25Z</time>
      </trkpt>
      <trkpt lat="43.55224" lon="5.1353">
        <ele>104.5</ele>
        <time>2025-10-13T21:38:25Z</time>
      </trkpt>
      <trkpt lat="43.55214" lon="5.13517">
        <ele>103.5</ele>
        <time>2025-10-13T21:38:25Z</time>
      </trkpt>
      <trkpt lat="43.55202" lon="5.13504">
        <ele>102.8</ele>
        <time>2025-10-13T21:38:25Z</time>
      </trkpt>
      <trkpt lat="43.55191" lon="5.13495">
        <ele>102.2</ele>
        <time>2025-10-13T21:38:25Z</time>
      </trkpt>
      <trkpt lat="43.55188" lon="5.13492">
        <ele>101.4</ele>
        <time>2025-10-13T21:38:25Z</time>
      </trkpt>
      <trkpt lat="43.55182" lon="5.13474">
        <ele>98.6</ele>
        <time>2025-10-13T21:38:25Z</time>
      </trkpt>
      <trkpt lat="43.55177" lon="5.13468">
        <ele>94.6</ele>
        <time>2025-10-13T21:38:25Z</time>
      </trkpt>
      <trkpt lat="43.55174" lon="5.13465">
        <ele>92.1</ele>
        <time>2025-10-13T21:38:25Z</time>
      </trkpt>
      <trkpt lat="43.55165" lon="5.13462">
        <ele>91</ele>
        <time>2025-10-13T21:38:25Z</time>
      </trkpt>
      <trkpt lat="43.55156" lon="5.1346">
        <ele>88.1</ele>
        <time>2025-10-13T21:38:25Z</time>
      </trkpt>
      <trkpt lat="43.55135" lon="5.1346">
        <ele>86.9</ele>
        <time>2025-10-13T21:38:25Z</time>
      </trkpt>
      <trkpt lat="43.55114" lon="5.13458">
        <ele>86.9</ele>
        <time>2025-10-13T21:38:25Z</time>
      </trkpt>
      <trkpt lat="43.55113" lon="5.13445">
        <ele>84.6</ele>
        <time>2025-10-13T21:38:25Z</time>
      </trkpt>
      <trkpt lat="43.55113" lon="5.13426">
        <ele>83.2</ele>
        <time>2025-10-13T21:38:25Z</time>
      </trkpt>
      <trkpt lat="43.55109" lon="5.13393">
        <ele>82.6</ele>
        <time>2025-10-13T21:38:25Z</time>
      </trkpt>
      <trkpt lat="43.55103" lon="5.13356">
        <ele>80.4</ele>
        <time>2025-10-13T21:38:25Z</time>
      </trkpt>
      <trkpt lat="43.55103" lon="5.13347">
        <ele>76.8</ele>
        <time>2025-10-13T21:38:25Z</time>
      </trkpt>
      <trkpt lat="43.55103" lon="5.13315">
        <ele>75.8</ele>
        <time>2025-10-13T21:38:25Z</time>
      </trkpt>
      <trkpt lat="43.55102" lon="5.13304">
        <ele>74.8</ele>
        <time>2025-10-13T21:38:25Z</time>
      </trkpt>
      <trkpt lat="43.55101" lon="5.13299">
        <ele>75.1</ele>
        <time>2025-10-13T21:38:25Z</time>
      </trkpt>
      <trkpt lat="43.55095" lon="5.13288">
        <ele>77.8</ele>
        <time>2025-10-13T21:38:25Z</time>
      </trkpt>
      <trkpt lat="43.55091" lon="5.13279">
        <ele>78.3</ele>
        <time>2025-10-13T21:38:25Z</time>
      </trkpt>
      <trkpt lat="43.55079" lon="5.13263">
        <ele>79.2</ele>
        <time>2025-10-13T21:38:25Z</time>
      </trkpt>
      <trkpt lat="43.55063" lon="5.13234">
        <ele>80.3</ele>
        <time>2025-10-13T21:38:25Z</time>
      </trkpt>
      <trkpt lat="43.5506" lon="5.13228">
        <ele>81.7</ele>
        <time>2025-10-13T21:38:25Z</time>
      </trkpt>
      <trkpt lat="43.55056" lon="5.13224">
        <ele>81.7</ele>
        <time>2025-10-13T21:38:25Z</time>
      </trkpt>
      <trkpt lat="43.55053" lon="5.13221">
        <ele>82.2</ele>
        <time>2025-10-13T21:38:25Z</time>
      </trkpt>
      <trkpt lat="43.55045" lon="5.1322">
        <ele>82.5</ele>
        <time>2025-10-13T21:38:25Z</time>
      </trkpt>
      <trkpt lat="43.55032" lon="5.13221">
        <ele>83.4</ele>
        <time>2025-10-13T21:38:25Z</time>
      </trkpt>
      <trkpt lat="43.55025" lon="5.13223">
        <ele>85.7</ele>
        <time>2025-10-13T21:38:25Z</time>
      </trkpt>
      <trkpt lat="43.55018" lon="5.13226">
        <ele>88.2</ele>
        <time>2025-10-13T21:38:25Z</time>
      </trkpt>
      <trkpt lat="43.55002" lon="5.13243">
        <ele>88.1</ele>
        <time>2025-10-13T21:38:25Z</time>
      </trkpt>
      <trkpt lat="43.55007" lon="5.1323">
        <ele>87.8</ele>
        <time>2025-10-13T21:38:25Z</time>
      </trkpt>
      <trkpt lat="43.55009" lon="5.13226">
        <ele>87.4</ele>
        <time>2025-10-13T21:38:25Z</time>
      </trkpt>
      <trkpt lat="43.55011" lon="5.13216">
        <ele>87.1</ele>
        <time>2025-10-13T21:38:25Z</time>
      </trkpt>
      <trkpt lat="43.55012" lon="5.13203">
        <ele>86.7</ele>
        <time>2025-10-13T21:38:25Z</time>
      </trkpt>
      <trkpt lat="43.55012" lon="5.13188">
        <ele>85.2</ele>
        <time>2025-10-13T21:38:25Z</time>
      </trkpt>
      <trkpt lat="43.5501" lon="5.13174">
        <ele>83.9</ele>
        <time>2025-10-13T21:38:25Z</time>
      </trkpt>
      <trkpt lat="43.55004" lon="5.13159">
        <ele>83</ele>
        <time>2025-10-13T21:38:25Z</time>
      </trkpt>
      <trkpt lat="43.54997" lon="5.13139">
        <ele>82.6</ele>
        <time>2025-10-13T21:38:25Z</time>
      </trkpt>
      <trkpt lat="43.54993" lon="5.13128">
        <ele>82.4</ele>
        <time>2025-10-13T21:38:25Z</time>
      </trkpt>
      <trkpt lat="43.54987" lon="5.13116">
        <ele>82.8</ele>
        <time>2025-10-13T21:38:25Z</time>
      </trkpt>
      <trkpt lat="43.5499" lon="5.13094">
        <ele>83</ele>
        <time>2025-10-13T21:38:25Z</time>
      </trkpt>
      <trkpt lat="43.54992" lon="5.13091">
        <ele>83.4</ele>
        <time>2025-10-13T21:38:25Z</time>
      </trkpt>
      <trkpt lat="43.5501" lon="5.13064">
        <ele>85.2</ele>
        <time>2025-10-13T21:38:25Z</time>
      </trkpt>
      <trkpt lat="43.55019" lon="5.13055">
        <ele>87.7</ele>
        <time>2025-10-13T21:38:25Z</time>
      </trkpt>
      <trkpt lat="43.54999" lon="5.13083">
        <ele>90.3</ele>
        <time>2025-10-13T21:38:25Z</time>
      </trkpt>
      <trkpt lat="43.5499" lon="5.13092">
        <ele>93.9</ele>
        <time>2025-10-13T21:38:25Z</time>
      </trkpt>
      <trkpt lat="43.54983" lon="5.13114">
        <ele>99.4</ele>
        <time>2025-10-13T21:38:25Z</time>
      </trkpt>
      <trkpt lat="43.54985" lon="5.13112">
        <ele>102.5</ele>
        <time>2025-10-13T21:38:25Z</time>
      </trkpt>
      <trkpt lat="43.5498" lon="5.13104">
        <ele>103.7</ele>
        <time>2025-10-13T21:38:25Z</time>
      </trkpt>
      <trkpt lat="43.54971" lon="5.13086">
        <ele>105.6</ele>
        <time>2025-10-13T21:38:25Z</time>
      </trkpt>
      <trkpt lat="43.5497" lon="5.13086">
        <ele>105.6</ele>
        <time>2025-10-13T21:38:25Z</time>
      </trkpt>
      <trkpt lat="43.54948" lon="5.13082">
        <ele>105.9</ele>
        <time>2025-10-13T21:38:25Z</time>
      </trkpt>
      <trkpt lat="43.5493" lon="5.13107">
        <ele>108.9</ele>
        <time>2025-10-13T21:38:25Z</time>
      </trkpt>
      <trkpt lat="43.54922" lon="5.13133">
        <ele>105.9</ele>
        <time>2025-10-13T21:38:25Z</time>
      </trkpt>
      <trkpt lat="43.54892" lon="5.1315">
        <ele>105.6</ele>
        <time>2025-10-13T21:38:25Z</time>
      </trkpt>
      <trkpt lat="43.54843" lon="5.13163">
        <ele>103.6</ele>
        <time>2025-10-13T21:38:25Z</time>
      </trkpt>
      <trkpt lat="43.54806" lon="5.13176">
        <ele>104.1</ele>
        <time>2025-10-13T21:38:25Z</time>
      </trkpt>
      <trkpt lat="43.54758" lon="5.13212">
        <ele>104.1</ele>
        <time>2025-10-13T21:38:25Z</time>
      </trkpt>
      <trkpt lat="43.54727" lon="5.13225">
        <ele>104.4</ele>
        <time>2025-10-13T21:38:25Z</time>
      </trkpt>
      <trkpt lat="43.5471" lon="5.13239">
        <ele>104.4</ele>
        <time>2025-10-13T21:38:25Z</time>
      </trkpt>
      <trkpt lat="43.54698" lon="5.13205">
        <ele>102.8</ele>
        <time>2025-10-13T21:38:25Z</time>
      </trkpt>
      <trkpt lat="43.54695" lon="5.1317">
        <ele>95.9</ele>
        <time>2025-10-13T21:38:25Z</time>
      </trkpt>
      <trkpt lat="43.54692" lon="5.13138">
        <ele>89.7</ele>
        <time>2025-10-13T21:38:25Z</time>
      </trkpt>
      <trkpt lat="43.54685" lon="5.13119">
        <ele>81</ele>
        <time>2025-10-13T21:38:25Z</time>
      </trkpt>
      <trkpt lat="43.54695" lon="5.13114">
        <ele>70.4</ele>
        <time>2025-10-13T21:38:25Z</time>
      </trkpt>
      <trkpt lat="43.5472" lon="5.13102">
        <ele>63.7</ele>
        <time>2025-10-13T21:38:25Z</time>
      </trkpt>
      <trkpt lat="43.54748" lon="5.13082">
        <ele>56.4</ele>
        <time>2025-10-13T21:38:25Z</time>
      </trkpt>
      <trkpt lat="43.5476" lon="5.1307">
        <ele>53.6</ele>
        <time>2025-10-13T21:38:25Z</time>
      </trkpt>
      <trkpt lat="43.54784" lon="5.13053">
        <ele>52.3</ele>
        <time>2025-10-13T21:38:25Z</time>
      </trkpt>
      <trkpt lat="43.54802" lon="5.13038">
        <ele>57.6</ele>
        <time>2025-10-13T21:38:25Z</time>
      </trkpt>
      <trkpt lat="43.54816" lon="5.13023">
        <ele>53</ele>
        <time>2025-10-13T21:38:25Z</time>
      </trkpt>
      <trkpt lat="43.54826" lon="5.13011">
        <ele>51.3</ele>
        <time>2025-10-13T21:38:25Z</time>
      </trkpt>
      <trkpt lat="43.54839" lon="5.12992">
        <ele>52.9</ele>
        <time>2025-10-13T21:38:25Z</time>
      </trkpt>
      <trkpt lat="43.54858" lon="5.1297">
        <ele>52.3</ele>
        <time>2025-10-13T21:38:25Z</time>
      </trkpt>
      <trkpt lat="43.54866" lon="5.1296">
        <ele>51.4</ele>
        <time>2025-10-13T21:38:25Z</time>
      </trkpt>
      <trkpt lat="43.5488" lon="5.12949">
        <ele>52.1</ele>
        <time>2025-10-13T21:38:25Z</time>
      </trkpt>
      <trkpt lat="43.54897" lon="5.12937">
        <ele>53.4</ele>
        <time>2025-10-13T21:38:25Z</time>
      </trkpt>
      <trkpt lat="43.54925" lon="5.12918">
        <ele>56.2</ele>
        <time>2025-10-13T21:38:25Z</time>
      </trkpt>
      <trkpt lat="43.54933" lon="5.12911">
        <ele>58.3</ele>
        <time>2025-10-13T21:38:25Z</time>
      </trkpt>
      <trkpt lat="43.54946" lon="5.12898">
        <ele>62.1</ele>
        <time>2025-10-13T21:38:25Z</time>
      </trkpt>
      <trkpt lat="43.54948" lon="5.12896">
        <ele>64.2</ele>
        <time>2025-10-13T21:38:25Z</time>
      </trkpt>
      <trkpt lat="43.54961" lon="5.12884">
        <ele>64.2</ele>
        <time>2025-10-13T21:38:25Z</time>
      </trkpt>
      <trkpt lat="43.54948" lon="5.12896">
        <ele>66.6</ele>
        <time>2025-10-13T21:38:25Z</time>
      </trkpt>
      <trkpt lat="43.54946" lon="5.12898">
        <ele>75.3</ele>
        <time>2025-10-13T21:38:25Z</time>
      </trkpt>
      <trkpt lat="43.54935" lon="5.12909">
        <ele>78</ele>
        <time>2025-10-13T21:38:25Z</time>
      </trkpt>
      <trkpt lat="43.54933" lon="5.12911">
        <ele>80.7</ele>
        <time>2025-10-13T21:38:25Z</time>
      </trkpt>
      <trkpt lat="43.54925" lon="5.12918">
        <ele>83.1</ele>
        <time>2025-10-13T21:38:25Z</time>
      </trkpt>
      <trkpt lat="43.54908" lon="5.12929">
        <ele>84.1</ele>
        <time>2025-10-13T21:38:25Z</time>
      </trkpt>
      <trkpt lat="43.54897" lon="5.12937">
        <ele>77.1</ele>
        <time>2025-10-13T21:38:25Z</time>
      </trkpt>
      <trkpt lat="43.5488" lon="5.12949">
        <ele>73.7</ele>
        <time>2025-10-13T21:38:25Z</time>
      </trkpt>
      <trkpt lat="43.54866" lon="5.1296">
        <ele>71.4</ele>
        <time>2025-10-13T21:38:25Z</time>
      </trkpt>
      <trkpt lat="43.54859" lon="5.12968">
        <ele>70.9</ele>
        <time>2025-10-13T21:38:25Z</time>
      </trkpt>
      <trkpt lat="43.54858" lon="5.1297">
        <ele>70.7</ele>
        <time>2025-10-13T21:38:25Z</time>
      </trkpt>
      <trkpt lat="43.54839" lon="5.12992">
        <ele>71</ele>
        <time>2025-10-13T21:38:25Z</time>
      </trkpt>
      <trkpt lat="43.54827" lon="5.1301">
        <ele>70.9</ele>
        <time>2025-10-13T21:38:25Z</time>
      </trkpt>
      <trkpt lat="43.54816" lon="5.13023">
        <ele>71.2</ele>
        <time>2025-10-13T21:38:25Z</time>
      </trkpt>
      <trkpt lat="43.5481" lon="5.13029">
        <ele>72.3</ele>
        <time>2025-10-13T21:38:25Z</time>
      </trkpt>
      <trkpt lat="43.54802" lon="5.13038">
        <ele>73.4</ele>
        <time>2025-10-13T21:38:25Z</time>
      </trkpt>
      <trkpt lat="43.54784" lon="5.13053">
        <ele>74.2</ele>
        <time>2025-10-13T21:38:25Z</time>
      </trkpt>
      <trkpt lat="43.5476" lon="5.1307">
        <ele>78.9</ele>
        <time>2025-10-13T21:38:25Z</time>
      </trkpt>
      <trkpt lat="43.54748" lon="5.13082">
        <ele>79.8</ele>
        <time>2025-10-13T21:38:25Z</time>
      </trkpt>
      <trkpt lat="43.54743" lon="5.13085">
        <ele>80.4</ele>
        <time>2025-10-13T21:38:25Z</time>
      </trkpt>
      <trkpt lat="43.54741" lon="5.1308">
        <ele>81.2</ele>
        <time>2025-10-13T21:38:25Z</time>
      </trkpt>
      <trkpt lat="43.54696" lon="5.1312">
        <ele>81.6</ele>
        <time>2025-10-13T21:38:25Z</time>
      </trkpt>
      <trkpt lat="43.54676" lon="5.13125">
        <ele>82</ele>
        <time>2025-10-13T21:38:25Z</time>
      </trkpt>
      <trkpt lat="43.54641" lon="5.13144">
        <ele>83.5</ele>
        <time>2025-10-13T21:38:25Z</time>
      </trkpt>
      <trkpt lat="43.54637" lon="5.13132">
        <ele>84</ele>
        <time>2025-10-13T21:38:25Z</time>
      </trkpt>
      <trkpt lat="43.54634" lon="5.13115">
        <ele>84</ele>
        <time>2025-10-13T21:38:25Z</time>
      </trkpt>
      <trkpt lat="43.54634" lon="5.13088">
        <ele>84.3</ele>
        <time>2025-10-13T21:38:25Z</time>
      </trkpt>
      <trkpt lat="43.54636" lon="5.13062">
        <ele>85.2</ele>
        <time>2025-10-13T21:38:25Z</time>
      </trkpt>
      <trkpt lat="43.54641" lon="5.13023">
        <ele>85.6</ele>
        <time>2025-10-13T21:38:25Z</time>
      </trkpt>
      <trkpt lat="43.5464" lon="5.13008">
        <ele>86.2</ele>
        <time>2025-10-13T21:38:25Z</time>
      </trkpt>
      <trkpt lat="43.54642" lon="5.12989">
        <ele>86.8</ele>
        <time>2025-10-13T21:38:25Z</time>
      </trkpt>
      <trkpt lat="43.54647" lon="5.12953">
        <ele>88.5</ele>
        <time>2025-10-13T21:38:25Z</time>
      </trkpt>
      <trkpt lat="43.54647" lon="5.12938">
        <ele>88.7</ele>
        <time>2025-10-13T21:38:25Z</time>
      </trkpt>
      <trkpt lat="43.54646" lon="5.12928">
        <ele>89.2</ele>
        <time>2025-10-13T21:38:25Z</time>
      </trkpt>
      <trkpt lat="43.54641" lon="5.12909">
        <ele>90.1</ele>
        <time>2025-10-13T21:38:25Z</time>
      </trkpt>
      <trkpt lat="43.5464" lon="5.12894">
        <ele>90.9</ele>
        <time>2025-10-13T21:38:25Z</time>
      </trkpt>
      <trkpt lat="43.54639" lon="5.12844">
        <ele>91.8</ele>
        <time>2025-10-13T21:38:25Z</time>
      </trkpt>
      <trkpt lat="43.54639" lon="5.12826">
        <ele>92.1</ele>
        <time>2025-10-13T21:38:25Z</time>
      </trkpt>
      <trkpt lat="43.5464" lon="5.12814">
        <ele>92.7</ele>
        <time>2025-10-13T21:38:25Z</time>
      </trkpt>
      <trkpt lat="43.54642" lon="5.12808">
        <ele>93.6</ele>
        <time>2025-10-13T21:38:25Z</time>
      </trkpt>
      <trkpt lat="43.54647" lon="5.128">
        <ele>95.5</ele>
        <time>2025-10-13T21:38:25Z</time>
      </trkpt>
      <trkpt lat="43.54654" lon="5.12792">
        <ele>95.9</ele>
        <time>2025-10-13T21:38:25Z</time>
      </trkpt>
      <trkpt lat="43.54658" lon="5.12795">
        <ele>99.2</ele>
        <time>2025-10-13T21:38:25Z</time>
      </trkpt>
      <trkpt lat="43.54672" lon="5.12797">
        <ele>97.4</ele>
        <time>2025-10-13T21:38:25Z</time>
      </trkpt>
      <trkpt lat="43.54685" lon="5.128">
        <ele>99.1</ele>
        <time>2025-10-13T21:38:25Z</time>
      </trkpt>
      <trkpt lat="43.54701" lon="5.12802">
        <ele>98.2</ele>
        <time>2025-10-13T21:38:25Z</time>
      </trkpt>
      <trkpt lat="43.54766" lon="5.12787">
        <ele>99.4</ele>
        <time>2025-10-13T21:38:25Z</time>
      </trkpt>
      <trkpt lat="43.54784" lon="5.12786">
        <ele>101.4</ele>
        <time>2025-10-13T21:38:25Z</time>
      </trkpt>
      <trkpt lat="43.54794" lon="5.12783">
        <ele>101.1</ele>
        <time>2025-10-13T21:38:25Z</time>
      </trkpt>
      <trkpt lat="43.54809" lon="5.12776">
        <ele>101.8</ele>
        <time>2025-10-13T21:38:25Z</time>
      </trkpt>
      <trkpt lat="43.54814" lon="5.12774">
        <ele>101.4</ele>
        <time>2025-10-13T21:38:25Z</time>
      </trkpt>
      <trkpt lat="43.54818" lon="5.12771">
        <ele>101.9</ele>
        <time>2025-10-13T21:38:25Z</time>
      </trkpt>
      <trkpt lat="43.54831" lon="5.12741">
        <ele>103</ele>
        <time>2025-10-13T21:38:25Z</time>
      </trkpt>
      <trkpt lat="43.54835" lon="5.12735">
        <ele>103.6</ele>
        <time>2025-10-13T21:38:25Z</time>
      </trkpt>
      <trkpt lat="43.54838" lon="5.12733">
        <ele>104.2</ele>
        <time>2025-10-13T21:38:25Z</time>
      </trkpt>
      <trkpt lat="43.54842" lon="5.12733">
        <ele>104.5</ele>
        <time>2025-10-13T21:38:25Z</time>
      </trkpt>
      <trkpt lat="43.54854" lon="5.12736">
        <ele>105.4</ele>
        <time>2025-10-13T21:38:25Z</time>
      </trkpt>
      <trkpt lat="43.5486" lon="5.12735">
        <ele>107.1</ele>
        <time>2025-10-13T21:38:25Z</time>
      </trkpt>
      <trkpt lat="43.54871" lon="5.12729">
        <ele>107.7</ele>
        <time>2025-10-13T21:38:25Z</time>
      </trkpt>
      <trkpt lat="43.5488" lon="5.12721">
        <ele>108</ele>
        <time>2025-10-13T21:38:25Z</time>
      </trkpt>
      <trkpt lat="43.54896" lon="5.12702">
        <ele>108.7</ele>
        <time>2025-10-13T21:38:25Z</time>
      </trkpt>
      <trkpt lat="43.54901" lon="5.12694">
        <ele>111.4</ele>
        <time>2025-10-13T21:38:25Z</time>
      </trkpt>
      <trkpt lat="43.54905" lon="5.12687">
        <ele>113.8</ele>
        <time>2025-10-13T21:38:25Z</time>
      </trkpt>
      <trkpt lat="43.54911" lon="5.12675">
        <ele>114.7</ele>
        <time>2025-10-13T21:38:25Z</time>
      </trkpt>
      <trkpt lat="43.54918" lon="5.12666">
        <ele>115.5</ele>
        <time>2025-10-13T21:38:25Z</time>
      </trkpt>
      <trkpt lat="43.54921" lon="5.1266">
        <ele>115.4</ele>
        <time>2025-10-13T21:38:25Z</time>
      </trkpt>
      <trkpt lat="43.54922" lon="5.12655">
        <ele>116.6</ele>
        <time>2025-10-13T21:38:25Z</time>
      </trkpt>
      <trkpt lat="43.54924" lon="5.12648">
        <ele>117.2</ele>
        <time>2025-10-13T21:38:25Z</time>
      </trkpt>
      <trkpt lat="43.54923" lon="5.12635">
        <ele>120.4</ele>
        <time>2025-10-13T21:38:25Z</time>
      </trkpt>
      <trkpt lat="43.54924" lon="5.12623">
        <ele>121.7</ele>
        <time>2025-10-13T21:38:25Z</time>
      </trkpt>
      <trkpt lat="43.54926" lon="5.12616">
        <ele>123.6</ele>
        <time>2025-10-13T21:38:25Z</time>
      </trkpt>
      <trkpt lat="43.54929" lon="5.12612">
        <ele>123.9</ele>
        <time>2025-10-13T21:38:25Z</time>
      </trkpt>
      <trkpt lat="43.54933" lon="5.12608">
        <ele>124.1</ele>
        <time>2025-10-13T21:38:25Z</time>
      </trkpt>
      <trkpt lat="43.54939" lon="5.12605">
        <ele>123.8</ele>
        <time>2025-10-13T21:38:25Z</time>
      </trkpt>
      <trkpt lat="43.54947" lon="5.12604">
        <ele>121.9</ele>
        <time>2025-10-13T21:38:25Z</time>
      </trkpt>
      <trkpt lat="43.54956" lon="5.12603">
        <ele>127.6</ele>
        <time>2025-10-13T21:38:25Z</time>
      </trkpt>
      <trkpt lat="43.5496" lon="5.12604">
        <ele>133.1</ele>
        <time>2025-10-13T21:38:25Z</time>
      </trkpt>
      <trkpt lat="43.54964" lon="5.12605">
        <ele>138.5</ele>
        <time>2025-10-13T21:38:25Z</time>
      </trkpt>
      <trkpt lat="43.5497" lon="5.12612">
        <ele>141.7</ele>
        <time>2025-10-13T21:38:25Z</time>
      </trkpt>
      <trkpt lat="43.54981" lon="5.12628">
        <ele>145.5</ele>
        <time>2025-10-13T21:38:25Z</time>
      </trkpt>
      <trkpt lat="43.54998" lon="5.12638">
        <ele>151.4</ele>
        <time>2025-10-13T21:38:25Z</time>
      </trkpt>
      <trkpt lat="43.55003" lon="5.1264">
        <ele>153.5</ele>
        <time>2025-10-13T21:38:25Z</time>
      </trkpt>
      <trkpt lat="43.55008" lon="5.1264">
        <ele>155.3</ele>
        <time>2025-10-13T21:38:25Z</time>
      </trkpt>
      <trkpt lat="43.55014" lon="5.12637">
        <ele>160.7</ele>
        <time>2025-10-13T21:38:25Z</time>
      </trkpt>
      <trkpt lat="43.55025" lon="5.12625">
        <ele>162.6</ele>
        <time>2025-10-13T21:38:25Z</time>
      </trkpt>
      <trkpt lat="43.55037" lon="5.12611">
        <ele>165.6</ele>
        <time>2025-10-13T21:38:25Z</time>
      </trkpt>
      <trkpt lat="43.55054" lon="5.12589">
        <ele>163.1</ele>
        <time>2025-10-13T21:38:25Z</time>
      </trkpt>
      <trkpt lat="43.55059" lon="5.12581">
        <ele>162.4</ele>
        <time>2025-10-13T21:38:25Z</time>
      </trkpt>
      <trkpt lat="43.55064" lon="5.12576">
        <ele>166</ele>
        <time>2025-10-13T21:38:25Z</time>
      </trkpt>
      <trkpt lat="43.55075" lon="5.12558">
        <ele>176.6</ele>
        <time>2025-10-13T21:38:25Z</time>
      </trkpt>
      <trkpt lat="43.55097" lon="5.12525">
        <ele>175.2</ele>
        <time>2025-10-13T21:38:25Z</time>
      </trkpt>
      <trkpt lat="43.55111" lon="5.12503">
        <ele>175.5</ele>
        <time>2025-10-13T21:38:25Z</time>
      </trkpt>
      <trkpt lat="43.55118" lon="5.12496">
        <ele>174.8</ele>
        <time>2025-10-13T21:38:25Z</time>
      </trkpt>
      <trkpt lat="43.55115" lon="5.12491">
        <ele>172.3</ele>
        <time>2025-10-13T21:38:25Z</time>
      </trkpt>
      <trkpt lat="43.55113" lon="5.12473">
        <ele>170.8</ele>
        <time>2025-10-13T21:38:25Z</time>
      </trkpt>
      <trkpt lat="43.55111" lon="5.12434">
        <ele>169.4</ele>
        <time>2025-10-13T21:38:25Z</time>
      </trkpt>
      <trkpt lat="43.5511" lon="5.12418">
        <ele>170.9</ele>
        <time>2025-10-13T21:38:25Z</time>
      </trkpt>
      <trkpt lat="43.5511" lon="5.12407">
        <ele>172.6</ele>
        <time>2025-10-13T21:38:25Z</time>
      </trkpt>
      <trkpt lat="43.5511" lon="5.124">
        <ele>170.2</ele>
        <time>2025-10-13T21:38:25Z</time>
      </trkpt>
      <trkpt lat="43.55111" lon="5.12394">
        <ele>169.8</ele>
        <time>2025-10-13T21:38:25Z</time>
      </trkpt>
      <trkpt lat="43.5511" lon="5.12403">
        <ele>169.7</ele>
        <time>2025-10-13T21:38:25Z</time>
      </trkpt>
      <trkpt lat="43.55105" lon="5.12412">
        <ele>169.8</ele>
        <time>2025-10-13T21:38:25Z</time>
      </trkpt>
      <trkpt lat="43.55088" lon="5.12393">
        <ele>169.9</ele>
        <time>2025-10-13T21:38:25Z</time>
      </trkpt>
      <trkpt lat="43.55073" lon="5.12391">
        <ele>170.1</ele>
        <time>2025-10-13T21:38:25Z</time>
      </trkpt>
      <trkpt lat="43.5506" lon="5.12389">
        <ele>171</ele>
        <time>2025-10-13T21:38:25Z</time>
      </trkpt>
      <trkpt lat="43.55053" lon="5.12389">
        <ele>165.6</ele>
        <time>2025-10-13T21:38:25Z</time>
      </trkpt>
      <trkpt lat="43.55044" lon="5.12389">
        <ele>170.4</ele>
        <time>2025-10-13T21:38:25Z</time>
      </trkpt>
      <trkpt lat="43.5503" lon="5.12388">
        <ele>170.1</ele>
        <time>2025-10-13T21:38:25Z</time>
      </trkpt>
      <trkpt lat="43.55025" lon="5.12387">
        <ele>169.9</ele>
        <time>2025-10-13T21:38:25Z</time>
      </trkpt>
      <trkpt lat="43.5502" lon="5.12386">
        <ele>169.6</ele>
        <time>2025-10-13T21:38:25Z</time>
      </trkpt>
      <trkpt lat="43.55009" lon="5.12382">
        <ele>169.8</ele>
        <time>2025-10-13T21:38:25Z</time>
      </trkpt>
      <trkpt lat="43.55002" lon="5.12381">
        <ele>169.9</ele>
        <time>2025-10-13T21:38:25Z</time>
      </trkpt>
      <trkpt lat="43.54995" lon="5.12381">
        <ele>169.8</ele>
        <time>2025-10-13T21:38:25Z</time>
      </trkpt>
      <trkpt lat="43.54979" lon="5.12378">
        <ele>170.2</ele>
        <time>2025-10-13T21:38:25Z</time>
      </trkpt>
      <trkpt lat="43.54971" lon="5.12376">
        <ele>171.6</ele>
        <time>2025-10-13T21:38:25Z</time>
      </trkpt>
      <trkpt lat="43.54945" lon="5.12363">
        <ele>174.8</ele>
        <time>2025-10-13T21:38:25Z</time>
      </trkpt>
      <trkpt lat="43.54918" lon="5.12347">
        <ele>176</ele>
        <time>2025-10-13T21:38:25Z</time>
      </trkpt>
      <trkpt lat="43.54905" lon="5.12355">
        <ele>175.8</ele>
        <time>2025-10-13T21:38:25Z</time>
      </trkpt>
      <trkpt lat="43.5489" lon="5.12361">
        <ele>176.6</ele>
        <time>2025-10-13T21:38:25Z</time>
      </trkpt>
      <trkpt lat="43.54883" lon="5.12365">
        <ele>169.8</ele>
        <time>2025-10-13T21:38:25Z</time>
      </trkpt>
      <trkpt lat="43.5488" lon="5.12381">
        <ele>162.8</ele>
        <time>2025-10-13T21:38:25Z</time>
      </trkpt>
      <trkpt lat="43.54868" lon="5.12377">
        <ele>162.9</ele>
        <time>2025-10-13T21:38:25Z</time>
      </trkpt>
      <trkpt lat="43.54859" lon="5.12382">
        <ele>164.4</ele>
        <time>2025-10-13T21:38:25Z</time>
      </trkpt>
      <trkpt lat="43.5487" lon="5.12382">
        <ele>162.6</ele>
        <time>2025-10-13T21:38:25Z</time>
      </trkpt>
      <trkpt lat="43.54878" lon="5.12386">
        <ele>155.3</ele>
        <time>2025-10-13T21:38:25Z</time>
      </trkpt>
      <trkpt lat="43.54866" lon="5.12394">
        <ele>151.6</ele>
        <time>2025-10-13T21:38:25Z</time>
      </trkpt>
      <trkpt lat="43.54854" lon="5.12393">
        <ele>147.9</ele>
        <time>2025-10-13T21:38:25Z</time>
      </trkpt>
      <trkpt lat="43.5485" lon="5.12387">
        <ele>143.6</ele>
        <time>2025-10-13T21:38:25Z</time>
      </trkpt>
      <trkpt lat="43.54845" lon="5.12388">
        <ele>140.5</ele>
        <time>2025-10-13T21:38:25Z</time>
      </trkpt>
      <trkpt lat="43.54833" lon="5.12412">
        <ele>134.8</ele>
        <time>2025-10-13T21:38:25Z</time>
      </trkpt>
      <trkpt lat="43.54827" lon="5.12422">
        <ele>128.9</ele>
        <time>2025-10-13T21:38:25Z</time>
      </trkpt>
      <trkpt lat="43.54823" lon="5.12423">
        <ele>121.9</ele>
        <time>2025-10-13T21:38:25Z</time>
      </trkpt>
      <trkpt lat="43.54815" lon="5.12418">
        <ele>121.6</ele>
        <time>2025-10-13T21:38:25Z</time>
      </trkpt>
      <trkpt lat="43.54824" lon="5.12422">
        <ele>121.7</ele>
        <time>2025-10-13T21:38:25Z</time>
      </trkpt>
      <trkpt lat="43.54826" lon="5.12422">
        <ele>120.4</ele>
        <time>2025-10-13T21:38:25Z</time>
      </trkpt>
      <trkpt lat="43.54834" lon="5.12412">
        <ele>117.2</ele>
        <time>2025-10-13T21:38:25Z</time>
      </trkpt>
      <trkpt lat="43.54842" lon="5.12395">
        <ele>115.4</ele>
        <time>2025-10-13T21:38:25Z</time>
      </trkpt>
      <trkpt lat="43.54845" lon="5.12388">
        <ele>115.5</ele>
        <time>2025-10-13T21:38:25Z</time>
      </trkpt>
      <trkpt lat="43.5485" lon="5.12388">
        <ele>114.7</ele>
        <time>2025-10-13T21:38:25Z</time>
      </trkpt>
      <trkpt lat="43.54854" lon="5.12393">
        <ele>113.8</ele>
        <time>2025-10-13T21:38:25Z</time>
      </trkpt>
      <trkpt lat="43.54867" lon="5.12393">
        <ele>113.9</ele>
        <time>2025-10-13T21:38:25Z</time>
      </trkpt>
      <trkpt lat="43.54877" lon="5.12388">
        <ele>114.4</ele>
        <time>2025-10-13T21:38:25Z</time>
      </trkpt>
      <trkpt lat="43.54882" lon="5.12365">
        <ele>119.3</ele>
        <time>2025-10-13T21:38:25Z</time>
      </trkpt>
      <trkpt lat="43.54897" lon="5.12357">
        <ele>119.3</ele>
        <time>2025-10-13T21:38:25Z</time>
      </trkpt>
      <trkpt lat="43.5491" lon="5.1235">
        <ele>120.7</ele>
        <time>2025-10-13T21:38:25Z</time>
      </trkpt>
      <trkpt lat="43.54919" lon="5.12346">
        <ele>122.5</ele>
        <time>2025-10-13T21:38:25Z</time>
      </trkpt>
      <trkpt lat="43.54937" lon="5.1236">
        <ele>124.6</ele>
        <time>2025-10-13T21:38:25Z</time>
      </trkpt>
      <trkpt lat="43.54956" lon="5.12367">
        <ele>133.3</ele>
        <time>2025-10-13T21:38:25Z</time>
      </trkpt>
      <trkpt lat="43.54972" lon="5.12377">
        <ele>135</ele>
        <time>2025-10-13T21:38:25Z</time>
      </trkpt>
      <trkpt lat="43.54991" lon="5.12379">
        <ele>137.8</ele>
        <time>2025-10-13T21:38:25Z</time>
      </trkpt>
      <trkpt lat="43.55005" lon="5.12381">
        <ele>143</ele>
        <time>2025-10-13T21:38:25Z</time>
      </trkpt>
      <trkpt lat="43.55021" lon="5.12385">
        <ele>146.6</ele>
        <time>2025-10-13T21:38:25Z</time>
      </trkpt>
      <trkpt lat="43.5503" lon="5.12387">
        <ele>150.2</ele>
        <time>2025-10-13T21:38:25Z</time>
      </trkpt>
      <trkpt lat="43.55037" lon="5.12387">
        <ele>160</ele>
        <time>2025-10-13T21:38:25Z</time>
      </trkpt>
      <trkpt lat="43.55045" lon="5.12388">
        <ele>164.6</ele>
        <time>2025-10-13T21:38:25Z</time>
      </trkpt>
      <trkpt lat="43.55055" lon="5.12387">
        <ele>165.7</ele>
        <time>2025-10-13T21:38:25Z</time>
      </trkpt>
      <trkpt lat="43.5507" lon="5.1239">
        <ele>167.6</ele>
        <time>2025-10-13T21:38:25Z</time>
      </trkpt>
      <trkpt lat="43.5509" lon="5.12392">
        <ele>168</ele>
        <time>2025-10-13T21:38:25Z</time>
      </trkpt>
      <trkpt lat="43.55105" lon="5.12412">
        <ele>167.2</ele>
        <time>2025-10-13T21:38:25Z</time>
      </trkpt>
      <trkpt lat="43.55109" lon="5.12415">
        <ele>166.8</ele>
        <time>2025-10-13T21:38:25Z</time>
      </trkpt>
      <trkpt lat="43.5511" lon="5.12418">
        <ele>166.2</ele>
        <time>2025-10-13T21:38:25Z</time>
      </trkpt>
      <trkpt lat="43.55111" lon="5.12434">
        <ele>165.5</ele>
        <time>2025-10-13T21:38:25Z</time>
      </trkpt>
      <trkpt lat="43.55113" lon="5.12473">
        <ele>166.2</ele>
        <time>2025-10-13T21:38:25Z</time>
      </trkpt>
      <trkpt lat="43.55118" lon="5.12496">
        <ele>168.5</ele>
        <time>2025-10-13T21:38:25Z</time>
      </trkpt>
      <trkpt lat="43.55111" lon="5.12503">
        <ele>172.4</ele>
        <time>2025-10-13T21:38:25Z</time>
      </trkpt>
      <trkpt lat="43.55097" lon="5.12525">
        <ele>174.5</ele>
        <time>2025-10-13T21:38:25Z</time>
      </trkpt>
      <trkpt lat="43.55105" lon="5.1253">
        <ele>174.6</ele>
        <time>2025-10-13T21:38:25Z</time>
      </trkpt>
      <trkpt lat="43.55131" lon="5.12543">
        <ele>174.7</ele>
        <time>2025-10-13T21:38:25Z</time>
      </trkpt>
      <trkpt lat="43.55137" lon="5.12547">
        <ele>175.2</ele>
        <time>2025-10-13T21:38:25Z</time>
      </trkpt>
      <trkpt lat="43.55144" lon="5.12549">
        <ele>175</ele>
        <time>2025-10-13T21:38:25Z</time>
      </trkpt>
      <trkpt lat="43.55153" lon="5.12548">
        <ele>174.9</ele>
        <time>2025-10-13T21:38:25Z</time>
      </trkpt>
      <trkpt lat="43.55187" lon="5.12538">
        <ele>174.9</ele>
        <time>2025-10-13T21:38:25Z</time>
      </trkpt>
      <trkpt lat="43.55198" lon="5.12537">
        <ele>175</ele>
        <time>2025-10-13T21:38:25Z</time>
      </trkpt>
      <trkpt lat="43.55206" lon="5.12538">
        <ele>175.2</ele>
        <time>2025-10-13T21:38:25Z</time>
      </trkpt>
      <trkpt lat="43.55227" lon="5.12543">
        <ele>175.5</ele>
        <time>2025-10-13T21:38:25Z</time>
      </trkpt>
      <trkpt lat="43.55239" lon="5.12549">
        <ele>175.5</ele>
        <time>2025-10-13T21:38:25Z</time>
      </trkpt>
      <trkpt lat="43.55252" lon="5.12553">
        <ele>175.6</ele>
        <time>2025-10-13T21:38:25Z</time>
      </trkpt>
      <trkpt lat="43.5529" lon="5.12558">
        <ele>175.4</ele>
        <time>2025-10-13T21:38:25Z</time>
      </trkpt>
      <trkpt lat="43.55312" lon="5.12563">
        <ele>176</ele>
        <time>2025-10-13T21:38:25Z</time>
      </trkpt>
      <trkpt lat="43.55319" lon="5.12567">
        <ele>175.4</ele>
        <time>2025-10-13T21:38:25Z</time>
      </trkpt>
      <trkpt lat="43.55331" lon="5.12575">
        <ele>174.7</ele>
        <time>2025-10-13T21:38:25Z</time>
      </trkpt>
      <trkpt lat="43.55322" lon="5.12582">
        <ele>174.4</ele>
        <time>2025-10-13T21:38:25Z</time>
      </trkpt>
      <trkpt lat="43.5531" lon="5.12591">
        <ele>174.3</ele>
        <time>2025-10-13T21:38:25Z</time>
      </trkpt>
      <trkpt lat="43.55296" lon="5.12604">
        <ele>174</ele>
        <time>2025-10-13T21:38:25Z</time>
      </trkpt>
      <trkpt lat="43.55284" lon="5.12614">
        <ele>173.9</ele>
        <time>2025-10-13T21:38:25Z</time>
      </trkpt>
      <trkpt lat="43.55274" lon="5.12624">
        <ele>174.1</ele>
        <time>2025-10-13T21:38:25Z</time>
      </trkpt>
      <trkpt lat="43.55258" lon="5.12643">
        <ele>174.2</ele>
        <time>2025-10-13T21:38:25Z</time>
      </trkpt>
      <trkpt lat="43.55239" lon="5.12662">
        <ele>174.3</ele>
        <time>2025-10-13T21:38:25Z</time>
      </trkpt>
      <trkpt lat="43.55231" lon="5.12671">
        <ele>173.8</ele>
        <time>2025-10-13T21:38:25Z</time>
      </trkpt>
      <trkpt lat="43.55229" lon="5.12678">
        <ele>173.5</ele>
        <time>2025-10-13T21:38:25Z</time>
      </trkpt>
      <trkpt lat="43.55227" lon="5.12685">
        <ele>173.6</ele>
        <time>2025-10-13T21:38:25Z</time>
      </trkpt>
      <trkpt lat="43.55225" lon="5.12688">
        <ele>173.6</ele>
        <time>2025-10-13T21:38:25Z</time>
      </trkpt>
      <trkpt lat="43.55223" lon="5.12692">
        <ele>173.4</ele>
        <time>2025-10-13T21:38:25Z</time>
      </trkpt>
      <trkpt lat="43.55222" lon="5.127">
        <ele>173.4</ele>
        <time>2025-10-13T21:38:25Z</time>
      </trkpt>
      <trkpt lat="43.55223" lon="5.12706">
        <ele>173</ele>
        <time>2025-10-13T21:38:25Z</time>
      </trkpt>
      <trkpt lat="43.55225" lon="5.12712">
        <ele>172.6</ele>
        <time>2025-10-13T21:38:25Z</time>
      </trkpt>
      <trkpt lat="43.55228" lon="5.1272">
        <ele>172.1</ele>
        <time>2025-10-13T21:38:25Z</time>
      </trkpt>
      <trkpt lat="43.55231" lon="5.12725">
        <ele>172.1</ele>
        <time>2025-10-13T21:38:25Z</time>
      </trkpt>
      <trkpt lat="43.55232" lon="5.12731">
        <ele>171.8</ele>
        <time>2025-10-13T21:38:25Z</time>
      </trkpt>
      <trkpt lat="43.55233" lon="5.12738">
        <ele>171.5</ele>
        <time>2025-10-13T21:38:25Z</time>
      </trkpt>
      <trkpt lat="43.55234" lon="5.12745">
        <ele>170.9</ele>
        <time>2025-10-13T21:38:25Z</time>
      </trkpt>
      <trkpt lat="43.55236" lon="5.12755">
        <ele>170.1</ele>
        <time>2025-10-13T21:38:25Z</time>
      </trkpt>
      <trkpt lat="43.55237" lon="5.12765">
        <ele>168.5</ele>
        <time>2025-10-13T21:38:25Z</time>
      </trkpt>
      <trkpt lat="43.55237" lon="5.12772">
        <ele>165.9</ele>
        <time>2025-10-13T21:38:25Z</time>
      </trkpt>
      <trkpt lat="43.55238" lon="5.12779">
        <ele>165.2</ele>
        <time>2025-10-13T21:38:25Z</time>
      </trkpt>
      <trkpt lat="43.5524" lon="5.12787">
        <ele>164.5</ele>
        <time>2025-10-13T21:38:25Z</time>
      </trkpt>
      <trkpt lat="43.55242" lon="5.12795">
        <ele>163.6</ele>
        <time>2025-10-13T21:38:25Z</time>
      </trkpt>
      <trkpt lat="43.55244" lon="5.12801">
        <ele>163</ele>
        <time>2025-10-13T21:38:25Z</time>
      </trkpt>
      <trkpt lat="43.55246" lon="5.12807">
        <ele>161.7</ele>
        <time>2025-10-13T21:38:25Z</time>
      </trkpt>
      <trkpt lat="43.55247" lon="5.12812">
        <ele>160.7</ele>
        <time>2025-10-13T21:38:25Z</time>
      </trkpt>
      <trkpt lat="43.55248" lon="5.12817">
        <ele>160.4</ele>
        <time>2025-10-13T21:38:25Z</time>
      </trkpt>
      <trkpt lat="43.55249" lon="5.12823">
        <ele>162</ele>
        <time>2025-10-13T21:38:25Z</time>
      </trkpt>
      <trkpt lat="43.55249" lon="5.12831">
        <ele>161.8</ele>
        <time>2025-10-13T21:38:25Z</time>
      </trkpt>
      <trkpt lat="43.5525" lon="5.12841">
        <ele>158.1</ele>
        <time>2025-10-13T21:38:25Z</time>
      </trkpt>
      <trkpt lat="43.55251" lon="5.12848">
        <ele>157.1</ele>
        <time>2025-10-13T21:38:25Z</time>
      </trkpt>
      <trkpt lat="43.55252" lon="5.12853">
        <ele>164.9</ele>
        <time>2025-10-13T21:38:25Z</time>
      </trkpt>
      <trkpt lat="43.55251" lon="5.12857">
        <ele>163</ele>
        <time>2025-10-13T21:38:25Z</time>
      </trkpt>
      <trkpt lat="43.5525" lon="5.12861">
        <ele>154.5</ele>
        <time>2025-10-13T21:38:25Z</time>
      </trkpt>
      <trkpt lat="43.5525" lon="5.12863">
        <ele>154.8</ele>
        <time>2025-10-13T21:38:25Z</time>
      </trkpt>
      <trkpt lat="43.5525" lon="5.12868">
        <ele>155.4</ele>
        <time>2025-10-13T21:38:25Z</time>
      </trkpt>
      <trkpt lat="43.55254" lon="5.12874">
        <ele>156</ele>
        <time>2025-10-13T21:38:25Z</time>
      </trkpt>
      <trkpt lat="43.55257" lon="5.12878">
        <ele>156.4</ele>
        <time>2025-10-13T21:38:25Z</time>
      </trkpt>
      <trkpt lat="43.55262" lon="5.12889">
        <ele>158.7</ele>
        <time>2025-10-13T21:38:25Z</time>
      </trkpt>
      <trkpt lat="43.55268" lon="5.12907">
        <ele>161</ele>
        <time>2025-10-13T21:38:25Z</time>
      </trkpt>
      <trkpt lat="43.55276" lon="5.12926">
        <ele>163.1</ele>
        <time>2025-10-13T21:38:25Z</time>
      </trkpt>
      <trkpt lat="43.55283" lon="5.12938">
        <ele>164.4</ele>
        <time>2025-10-13T21:38:25Z</time>
      </trkpt>
      <trkpt lat="43.55288" lon="5.12942">
        <ele>165.9</ele>
        <time>2025-10-13T21:38:25Z</time>
      </trkpt>
      <trkpt lat="43.55299" lon="5.12942">
        <ele>166.2</ele>
        <time>2025-10-13T21:38:25Z</time>
      </trkpt>
      <trkpt lat="43.5531" lon="5.12938">
        <ele>166.5</ele>
        <time>2025-10-13T21:38:25Z</time>
      </trkpt>
      <trkpt lat="43.55312" lon="5.12938">
        <ele>168.8</ele>
        <time>2025-10-13T21:38:25Z</time>
      </trkpt>
      <trkpt lat="43.55319" lon="5.12954">
        <ele>169</ele>
        <time>2025-10-13T21:38:25Z</time>
      </trkpt>
      <trkpt lat="43.55329" lon="5.12974">
        <ele>168.9</ele>
        <time>2025-10-13T21:38:25Z</time>
      </trkpt>
      <trkpt lat="43.55329" lon="5.13021">
        <ele>167.3</ele>
        <time>2025-10-13T21:38:25Z</time>
      </trkpt>
      <trkpt lat="43.55336" lon="5.13014">
        <ele>167</ele>
        <time>2025-10-13T21:38:25Z</time>
      </trkpt>
      <trkpt lat="43.55319" lon="5.1308">
        <ele>169.5</ele>
        <time>2025-10-13T21:38:25Z</time>
      </trkpt>
      <trkpt lat="43.55329" lon="5.13108">
        <ele>169.5</ele>
        <time>2025-10-13T21:38:25Z</time>
      </trkpt>
      <trkpt lat="43.55337" lon="5.13146">
        <ele>167.9</ele>
        <time>2025-10-13T21:38:25Z</time>
      </trkpt>
      <trkpt lat="43.55332" lon="5.13147">
        <ele>167.4</ele>
        <time>2025-10-13T21:38:25Z</time>
      </trkpt>
      <trkpt lat="43.55323" lon="5.13153">
        <ele>166.9</ele>
        <time>2025-10-13T21:38:25Z</time>
      </trkpt>
      <trkpt lat="43.55318" lon="5.13153">
        <ele>166.5</ele>
        <time>2025-10-13T21:38:25Z</time>
      </trkpt>
      <trkpt lat="43.55319" lon="5.13198">
        <ele>166.1</ele>
        <time>2025-10-13T21:38:25Z</time>
      </trkpt>
      <trkpt lat="43.55312" lon="5.13237">
        <ele>165.4</ele>
        <time>2025-10-13T21:38:25Z</time>
      </trkpt>
      <trkpt lat="43.55314" lon="5.13243">
        <ele>164.1</ele>
        <time>2025-10-13T21:38:25Z</time>
      </trkpt>
      <trkpt lat="43.5532" lon="5.13245">
        <ele>163.1</ele>
        <time>2025-10-13T21:38:25Z</time>
      </trkpt>
      <trkpt lat="43.55325" lon="5.13265">
        <ele>162.3</ele>
        <time>2025-10-13T21:38:25Z</time>
      </trkpt>
      <trkpt lat="43.55327" lon="5.13279">
        <ele>159.3</ele>
        <time>2025-10-13T21:38:25Z</time>
      </trkpt>
      <trkpt lat="43.55338" lon="5.13295">
        <ele>162.3</ele>
        <time>2025-10-13T21:38:25Z</time>
      </trkpt>
      <trkpt lat="43.55337" lon="5.13305">
        <ele>164.3</ele>
        <time>2025-10-13T21:38:25Z</time>
      </trkpt>
      <trkpt lat="43.55318" lon="5.13302">
        <ele>164.7</ele>
        <time>2025-10-13T21:38:25Z</time>
      </trkpt>
      <trkpt lat="43.55311" lon="5.13308">
        <ele>165.7</ele>
        <time>2025-10-13T21:38:25Z</time>
      </trkpt>
      <trkpt lat="43.5531" lon="5.13316">
        <ele>166</ele>
        <time>2025-10-13T21:38:25Z</time>
      </trkpt>
      <trkpt lat="43.55306" lon="5.13322">
        <ele>167.6</ele>
        <time>2025-10-13T21:38:25Z</time>
      </trkpt>
      <trkpt lat="43.553" lon="5.13324">
        <ele>166.8</ele>
        <time>2025-10-13T21:38:25Z</time>
      </trkpt>
      <trkpt lat="43.55294" lon="5.13327">
        <ele>167.9</ele>
        <time>2025-10-13T21:38:25Z</time>
      </trkpt>
      <trkpt lat="43.55289" lon="5.13334">
        <ele>169.5</ele>
        <time>2025-10-13T21:38:25Z</time>
      </trkpt>
      <trkpt lat="43.55287" lon="5.1334">
        <ele>167.4</ele>
        <time>2025-10-13T21:38:25Z</time>
      </trkpt>
      <trkpt lat="43.55286" lon="5.13345">
        <ele>166.7</ele>
        <time>2025-10-13T21:38:25Z</time>
      </trkpt>
      <trkpt lat="43.55284" lon="5.13351">
        <ele>166.5</ele>
        <time>2025-10-13T21:38:25Z</time>
      </trkpt>
      <trkpt lat="43.55277" lon="5.13356">
        <ele>165</ele>
        <time>2025-10-13T21:38:25Z</time>
      </trkpt>
      <trkpt lat="43.5527" lon="5.13358">
        <ele>165</ele>
        <time>2025-10-13T21:38:25Z</time>
      </trkpt>
      <trkpt lat="43.55279" lon="5.13354">
        <ele>160.4</ele>
        <time>2025-10-13T21:38:25Z</time>
      </trkpt>
      <trkpt lat="43.55285" lon="5.13349">
        <ele>161.4</ele>
        <time>2025-10-13T21:38:25Z</time>
      </trkpt>
      <trkpt lat="43.55287" lon="5.13341">
        <ele>164</ele>
        <time>2025-10-13T21:38:25Z</time>
      </trkpt>
      <trkpt lat="43.5529" lon="5.13334">
        <ele>166.1</ele>
        <time>2025-10-13T21:38:25Z</time>
      </trkpt>
      <trkpt lat="43.55295" lon="5.13328">
        <ele>166</ele>
        <time>2025-10-13T21:38:25Z</time>
      </trkpt>
      <trkpt lat="43.553" lon="5.13321">
        <ele>166.1</ele>
        <time>2025-10-13T21:38:25Z</time>
      </trkpt>
      <trkpt lat="43.55308" lon="5.13322">
        <ele>169.5</ele>
        <time>2025-10-13T21:38:25Z</time>
      </trkpt>
      <trkpt lat="43.5531" lon="5.13316">
        <ele>166.2</ele>
        <time>2025-10-13T21:38:25Z</time>
      </trkpt>
      <trkpt lat="43.55318" lon="5.13303">
        <ele>166.2</ele>
        <time>2025-10-13T21:38:25Z</time>
      </trkpt>
      <trkpt lat="43.55335" lon="5.13304">
        <ele>166.1</ele>
        <time>2025-10-13T21:38:25Z</time>
      </trkpt>
      <trkpt lat="43.55341" lon="5.133">
        <ele>166.4</ele>
        <time>2025-10-13T21:38:25Z</time>
      </trkpt>
      <trkpt lat="43.55344" lon="5.13303">
        <ele>166.8</ele>
        <time>2025-10-13T21:38:25Z</time>
      </trkpt>
      <trkpt lat="43.55352" lon="5.13316">
        <ele>166.7</ele>
        <time>2025-10-13T21:38:25Z</time>
      </trkpt>
      <trkpt lat="43.5535" lon="5.13318">
        <ele>166.7</ele>
        <time>2025-10-13T21:38:25Z</time>
      </trkpt>
      <trkpt lat="43.55363" lon="5.13347">
        <ele>166.5</ele>
        <time>2025-10-13T21:38:25Z</time>
      </trkpt>
      <trkpt lat="43.55384" lon="5.13368">
        <ele>165.7</ele>
        <time>2025-10-13T21:38:25Z</time>
      </trkpt>
      <trkpt lat="43.55391" lon="5.13409">
        <ele>164.8</ele>
        <time>2025-10-13T21:38:25Z</time>
      </trkpt>
      <trkpt lat="43.55405" lon="5.13477">
        <ele>157</ele>
        <time>2025-10-13T21:38:25Z</time>
      </trkpt>
      <trkpt lat="43.55441" lon="5.13526">
        <ele>154.6</ele>
        <time>2025-10-13T21:38:25Z</time>
      </trkpt>
      <trkpt lat="43.55446" lon="5.13516">
        <ele>152.8</ele>
        <time>2025-10-13T21:38:25Z</time>
      </trkpt>
      <trkpt lat="43.5546" lon="5.13495">
        <ele>150.7</ele>
        <time>2025-10-13T21:38:25Z</time>
      </trkpt>
      <trkpt lat="43.55461" lon="5.13493">
        <ele>150.7</ele>
        <time>2025-10-13T21:38:25Z</time>
      </trkpt>
      <trkpt lat="43.55466" lon="5.1349">
        <ele>150.7</ele>
        <time>2025-10-13T21:38:25Z</time>
      </trkpt>
      <trkpt lat="43.5547" lon="5.13489">
        <ele>150</ele>
        <time>2025-10-13T21:38:25Z</time>
      </trkpt>
      <trkpt lat="43.55477" lon="5.13489">
        <ele>149.4</ele>
        <time>2025-10-13T21:38:25Z</time>
      </trkpt>
      <trkpt lat="43.55485" lon="5.13486">
        <ele>149</ele>
        <time>2025-10-13T21:38:25Z</time>
      </trkpt>
      <trkpt lat="43.55491" lon="5.13481">
        <ele>148.9</ele>
        <time>2025-10-13T21:38:25Z</time>
      </trkpt>
      <trkpt lat="43.55531" lon="5.13455">
        <ele>148.9</ele>
        <time>2025-10-13T21:38:25Z</time>
      </trkpt>
      <trkpt lat="43.55547" lon="5.13443">
        <ele>148.9</ele>
        <time>2025-10-13T21:38:25Z</time>
      </trkpt>
      <trkpt lat="43.55565" lon="5.13427">
        <ele>148.9</ele>
        <time>2025-10-13T21:38:25Z</time>
      </trkpt>
      <trkpt lat="43.5559" lon="5.13404">
        <ele>149.1</ele>
        <time>2025-10-13T21:38:25Z</time>
      </trkpt>
      <trkpt lat="43.55593" lon="5.13402">
        <ele>148.9</ele>
        <time>2025-10-13T21:38:25Z</time>
      </trkpt>
      <trkpt lat="43.55599" lon="5.13402">
        <ele>148.9</ele>
        <time>2025-10-13T21:38:25Z</time>
      </trkpt>
      <trkpt lat="43.55611" lon="5.13405">
        <ele>148.9</ele>
        <time>2025-10-13T21:38:25Z</time>
      </trkpt>
      <trkpt lat="43.55617" lon="5.1341">
        <ele>148.8</ele>
        <time>2025-10-13T21:38:25Z</time>
      </trkpt>
      <trkpt lat="43.55626" lon="5.13415">
        <ele>148.8</ele>
        <time>2025-10-13T21:38:25Z</time>
      </trkpt>
      <trkpt lat="43.5563" lon="5.13419">
        <ele>148.9</ele>
        <time>2025-10-13T21:38:25Z</time>
      </trkpt>
      <trkpt lat="43.55643" lon="5.13427">
        <ele>149.1</ele>
        <time>2025-10-13T21:38:25Z</time>
      </trkpt>
      <trkpt lat="43.5565" lon="5.13432">
        <ele>149.1</ele>
        <time>2025-10-13T21:38:25Z</time>
      </trkpt>
      <trkpt lat="43.55659" lon="5.13442">
        <ele>149</ele>
        <time>2025-10-13T21:38:25Z</time>
      </trkpt>
      <trkpt lat="43.55674" lon="5.13464">
        <ele>149.5</ele>
        <time>2025-10-13T21:38:25Z</time>
      </trkpt>
      <trkpt lat="43.55675" lon="5.13467">
        <ele>148.9</ele>
        <time>2025-10-13T21:38:25Z</time>
      </trkpt>
      <trkpt lat="43.55679" lon="5.13473">
        <ele>148.8</ele>
        <time>2025-10-13T21:38:25Z</time>
      </trkpt>
      <trkpt lat="43.55683" lon="5.13479">
        <ele>149.1</ele>
        <time>2025-10-13T21:38:25Z</time>
      </trkpt>
      <trkpt lat="43.55685" lon="5.13486">
        <ele>149</ele>
        <time>2025-10-13T21:38:25Z</time>
      </trkpt>
      <trkpt lat="43.55689" lon="5.13494">
        <ele>148.8</ele>
        <time>2025-10-13T21:38:25Z</time>
      </trkpt>
      <trkpt lat="43.55692" lon="5.13501">
        <ele>148.6</ele>
        <time>2025-10-13T21:38:25Z</time>
      </trkpt>
      <trkpt lat="43.55701" lon="5.13514">
        <ele>148.6</ele>
        <time>2025-10-13T21:38:25Z</time>
      </trkpt>
      <trkpt lat="43.55713" lon="5.13531">
        <ele>148.3</ele>
        <time>2025-10-13T21:38:25Z</time>
      </trkpt>
      <trkpt lat="43.55723" lon="5.13538">
        <ele>148.1</ele>
        <time>2025-10-13T21:38:25Z</time>
      </trkpt>
      <trkpt lat="43.55729" lon="5.1354">
        <ele>147.7</ele>
        <time>2025-10-13T21:38:25Z</time>
      </trkpt>
      <trkpt lat="43.55735" lon="5.1354">
        <ele>147</ele>
        <time>2025-10-13T21:38:25Z</time>
      </trkpt>
      <trkpt lat="43.55745" lon="5.13541">
        <ele>146.2</ele>
        <time>2025-10-13T21:38:25Z</time>
      </trkpt>
      <trkpt lat="43.55756" lon="5.13544">
        <ele>146.1</ele>
        <time>2025-10-13T21:38:25Z</time>
      </trkpt>
      <trkpt lat="43.5576" lon="5.13546">
        <ele>145.9</ele>
        <time>2025-10-13T21:38:25Z</time>
      </trkpt>
      <trkpt lat="43.55764" lon="5.13551">
        <ele>145.2</ele>
        <time>2025-10-13T21:38:25Z</time>
      </trkpt>
      <trkpt lat="43.55765" lon="5.13555">
        <ele>144.5</ele>
        <time>2025-10-13T21:38:25Z</time>
      </trkpt>
      <trkpt lat="43.55766" lon="5.13571">
        <ele>143.6</ele>
        <time>2025-10-13T21:38:25Z</time>
      </trkpt>
      <trkpt lat="43.55766" lon="5.13582">
        <ele>141.4</ele>
        <time>2025-10-13T21:38:25Z</time>
      </trkpt>
      <trkpt lat="43.55765" lon="5.13592">
        <ele>141.1</ele>
        <time>2025-10-13T21:38:25Z</time>
      </trkpt>
      <trkpt lat="43.55765" lon="5.13608">
        <ele>140.5</ele>
        <time>2025-10-13T21:38:25Z</time>
      </trkpt>
      <trkpt lat="43.55765" lon="5.13615">
        <ele>140</ele>
        <time>2025-10-13T21:38:25Z</time>
      </trkpt>
      <trkpt lat="43.55766" lon="5.13628">
        <ele>139.5</ele>
        <time>2025-10-13T21:38:25Z</time>
      </trkpt>
      <trkpt lat="43.55766" lon="5.13641">
        <ele>138.6</ele>
        <time>2025-10-13T21:38:25Z</time>
      </trkpt>
      <trkpt lat="43.55765" lon="5.13653">
        <ele>138.4</ele>
        <time>2025-10-13T21:38:25Z</time>
      </trkpt>
      <trkpt lat="43.55763" lon="5.13663">
        <ele>138.4</ele>
        <time>2025-10-13T21:38:25Z</time>
      </trkpt>
      <trkpt lat="43.55754" lon="5.13693">
        <ele>137.9</ele>
        <time>2025-10-13T21:38:25Z</time>
      </trkpt>
      <trkpt lat="43.55751" lon="5.13699">
        <ele>137.3</ele>
        <time>2025-10-13T21:38:25Z</time>
      </trkpt>
      <trkpt lat="43.55744" lon="5.13708">
        <ele>136.8</ele>
        <time>2025-10-13T21:38:25Z</time>
      </trkpt>
      <trkpt lat="43.55737" lon="5.13716">
        <ele>134.7</ele>
        <time>2025-10-13T21:38:25Z</time>
      </trkpt>
      <trkpt lat="43.55724" lon="5.13733">
        <ele>134</ele>
        <time>2025-10-13T21:38:25Z</time>
      </trkpt>
      <trkpt lat="43.55717" lon="5.13748">
        <ele>133.1</ele>
        <time>2025-10-13T21:38:25Z</time>
      </trkpt>
      <trkpt lat="43.55713" lon="5.13767">
        <ele>132.9</ele>
        <time>2025-10-13T21:38:25Z</time>
      </trkpt>
      <trkpt lat="43.55712" lon="5.13786">
        <ele>132.7</ele>
        <time>2025-10-13T21:38:25Z</time>
      </trkpt>
      <trkpt lat="43.55713" lon="5.13808">
        <ele>132.2</ele>
        <time>2025-10-13T21:38:25Z</time>
      </trkpt>
      <trkpt lat="43.55713" lon="5.13816">
        <ele>132</ele>
        <time>2025-10-13T21:38:25Z</time>
      </trkpt>
      <trkpt lat="43.55712" lon="5.13823">
        <ele>131.7</ele>
        <time>2025-10-13T21:38:25Z</time>
      </trkpt>
      <trkpt lat="43.55703" lon="5.13862">
        <ele>131</ele>
        <time>2025-10-13T21:38:25Z</time>
      </trkpt>
      <trkpt lat="43.55697" lon="5.1388">
        <ele>131.3</ele>
        <time>2025-10-13T21:38:25Z</time>
      </trkpt>
      <trkpt lat="43.55685" lon="5.13914">
        <ele>130.9</ele>
        <time>2025-10-13T21:38:25Z</time>
      </trkpt>
      <trkpt lat="43.55683" lon="5.13919">
        <ele>130</ele>
        <time>2025-10-13T21:38:25Z</time>
      </trkpt>
      <trkpt lat="43.55683" lon="5.13924">
        <ele>128.9</ele>
        <time>2025-10-13T21:38:25Z</time>
      </trkpt>
      <trkpt lat="43.55683" lon="5.13934">
        <ele>128.4</ele>
        <time>2025-10-13T21:38:25Z</time>
      </trkpt>
      <trkpt lat="43.55685" lon="5.13955">
        <ele>128</ele>
        <time>2025-10-13T21:38:25Z</time>
      </trkpt>
      <trkpt lat="43.55687" lon="5.13997">
        <ele>127.6</ele>
        <time>2025-10-13T21:38:25Z</time>
      </trkpt>
      <trkpt lat="43.55686" lon="5.14038">
        <ele>126.9</ele>
        <time>2025-10-13T21:38:25Z</time>
      </trkpt>
      <trkpt lat="43.55686" lon="5.14055">
        <ele>127.6</ele>
        <time>2025-10-13T21:38:25Z</time>
      </trkpt>
      <trkpt lat="43.55686" lon="5.14072">
        <ele>126.8</ele>
        <time>2025-10-13T21:38:25Z</time>
      </trkpt>
      <trkpt lat="43.55687" lon="5.14095">
        <ele>126.8</ele>
        <time>2025-10-13T21:38:25Z</time>
      </trkpt>
      <trkpt lat="43.55688" lon="5.14104">
        <ele>126.8</ele>
        <time>2025-10-13T21:38:25Z</time>
      </trkpt>
      <trkpt lat="43.5569" lon="5.14108">
        <ele>128</ele>
        <time>2025-10-13T21:38:25Z</time>
      </trkpt>
      <trkpt lat="43.55691" lon="5.14112">
        <ele>128.4</ele>
        <time>2025-10-13T21:38:25Z</time>
      </trkpt>
      <trkpt lat="43.55694" lon="5.14119">
        <ele>128.9</ele>
        <time>2025-10-13T21:38:25Z</time>
      </trkpt>
      <trkpt lat="43.55686" lon="5.14124">
        <ele>130</ele>
        <time>2025-10-13T21:38:25Z</time>
      </trkpt>
    </trkseg>
  </trk>
</gpx>